This is the latest recevied weather packets stored in our database for station/object KB9ZI. If no packets are shown the sender has not sent any weather packets the latest 10 day(s).
| Time | Temp. | Humidity | Pressure | Rain* | Wind** | Luminosity | Snow |
|---|---|---|---|---|---|---|---|
| 1778162039 | 7.78° C | 59% | 1012.7 hPa | 0 mm | - | - | - |
| 1778161917 | 7.22° C | 60% | 1012.7 hPa | 0 mm | - | - | - |
| 1778161803 | 7.22° C | 60% | 1012.7 hPa | 0 mm | - | - | - |
| 1778161735 | 7.22° C | 63% | 1012.7 hPa | 0 mm | - | - | - |
| 1778161557 | 7.22° C | 63% | 1012.7 hPa | 0 mm | - | - | - |
| 1778161436 | 7.22° C | 66% | 1012.8 hPa | 0 mm | - | - | - |
| 1778161364 | 6.67° C | 67% | 1012.8 hPa | 0 mm | - | - | - |
| 1778161334 | 6.67° C | 68% | 1012.6 hPa | 0 mm | - | - | - |
| 1778161074 | 6.67° C | 69% | 1012.8 hPa | 0 mm | - | - | - |
| 1778160953 | 6.11° C | 68% | 1012.7 hPa | 0 mm | - | - | - |
| 1778160834 | 6.11° C | 68% | 1012.7 hPa | 0 mm | - | - | - |
| 1778160774 | 6.11° C | 69% | 1012.8 hPa | 0 mm | - | - | - |
| 1778160602 | 6.11° C | 70% | 1012.7 hPa | 0 mm | - | - | - |
| 1778160473 | 5.56° C | 72% | 1012.8 hPa | 0 mm | - | - | - |
| 1778160351 | 5.56° C | 73% | 1012.8 hPa | 0 mm | - | - | - |
| 1778160226 | 5.56° C | 73% | 1012.8 hPa | 0 mm | - | - | - |
| 1778160105 | 5.56° C | 74% | 1012.8 hPa | 0 mm | - | - | - |
| 1778159985 | 5° C | 76% | 1012.8 hPa | 0 mm | - | - | - |
| 1778159866 | 5° C | 76% | 1012.8 hPa | 0 mm | - | - | - |
| 1778159804 | 5° C | 78% | 1012.8 hPa | 0 mm | - | - | - |
| 1778159626 | 5° C | 79% | 1012.9 hPa | 0 mm | - | - | - |
| 1778159501 | 4.44° C | 80% | 1012.9 hPa | 0 mm | - | - | - |
| 1778159441 | 4.44° C | 82% | 1012.9 hPa | 0 mm | - | - | - |
| 1778159260 | 4.44° C | 83% | 1012.9 hPa | 0 mm | - | - | - |
| 1778159139 | 3.89° C | 84% | 1012.9 hPa | 0 mm | - | - | - |
* Rain latest hour (hover to see other rain measurements)
** Current wind speed in m/s (hover to see current wind gust speed)